Погода в Вашковцах

Украина / Черновицкая область     48°24′20″N   27°07′36″E
темп.,
°C
ветер,
м/с
пор.,
м/с
влажн.,
%
обл.,
%
осадки,
мм/ч
давл.,
гПа
погр.,
м
26 сентября, вс
вс2600:00+13з4127495 0.0 1020233
03:00+14з51266100 0.0 1020371
06:00+14з41064100 0.0 1020341
09:00+15з3865100 0.0 1021312
12:00+17зсз4766100 0.0 1022466
15:00+19сз576199 0.0 10211014
18:00+18ссз476248 0.0 1020551
21:00+13с338441 0.0 102142
27 сентября, пн
пн2700:00+12ссв2281100 0.0 102217
03:00+10ссв2275100 0.0 102316
06:00+9св228026 0.0 102322
09:00+11всв35695 0.0 1023243
12:00+16всв334954 0.0 1022922
15:00+18св22375 0.0 10211381
18:00+17св35440 0.0 1020143
21:00+11всв410610 0.0 1022194
28 сентября, вт
вт2800:00+9всв410720 0.0 1023203
03:00+7всв38793 0.0 1023145
06:00+6всв37863 0.0 1023135
09:00+9в57742 0.0 1024314
12:00+14в44500 0.0 10241084
15:00+17в44415 0.0 10231604
18:00+15в34464 0.0 1024110
21:00+10всв411602 0.0 1026229
29 сентября, ср
ср2900:00+9в23682 0.0 102734
03:00+8в22682 0.0 102724
06:00+7всв33704 0.0 102836
09:00+10в48705 0.0 1029282
12:00+15вюв564845 0.0 10291603
15:00+16юв454170 0.0 10281906
18:00+15вюв4643100 0.0 1028456
21:00+12вюв5105179 0.0 1029416
30 сентября, чт
чт3000:00+9вюв612635 0.0 1030335
03:00+7вюв511695 0.0 1030289
06:00+6вюв38735 0.0 1031175
09:00+9вюв48615 0.0 1031335
12:00+14юв56444 0.0 10311134
15:00+16юв56380 0.0 10301562
18:00+15вюв47410 0.0 1029246
21:00+10вюв35460 0.0 103180